• In Belarus
  • List of Countries
  • For 7 days
  • Water Temperature
  • Satellite Maps
  • Weather Map
  • Weather Widgets
  • user-avatar
    Login

    Hourly Weather Leknes

    Today, 18 March, Monday

    Time Temperature Precipitation Wind Pressure Humidity
    00:00 -8°C° 0 mm 6 mps 728 mmHg 65%
    01:00 -8°C° 0 mm 7 mps 727 mmHg 64%
    02:00 -8°C° 0 mm 6 mps 727 mmHg 64%
    03:00 -8°C° 0 mm 6 mps 727 mmHg 65%
    04:00 -7°C° 0 mm 5 mps 727 mmHg 65%
    05:00 -7°C° 0 mm 4 mps 728 mmHg 66%
    06:00 -7°C° 0 mm 4 mps 728 mmHg 67%
    07:00 -7°C° 0 mm 4 mps 728 mmHg 67%
    08:00 -5°C° 0 mm 4 mps 728 mmHg 66%
    09:00 -4°C° 0 mm 4 mps 728 mmHg 65%
    10:00 -4°C° 0 mm 3 mps 729 mmHg 64%
    11:00 -4°C° 0 mm 4 mps 729 mmHg 64%
    12:00 -3°C° 0 mm 4 mps 730 mmHg 63%
    13:00 -4°C° 0 mm 5 mps 730 mmHg 61%
    14:00 -4°C° 0 mm 5 mps 730 mmHg 62%
    15:00 -4°C° 0 mm 6 mps 731 mmHg 63%
    16:00 -4°C° 0 mm 6 mps 732 mmHg 64%
    17:00 -5°C° 0 mm 6 mps 732 mmHg 65%
    18:00 -5°C° 0 mm 6 mps 733 mmHg 66%
    19:00 -5°C° 0 mm 6 mps 733 mmHg 67%
    20:00 -5°C° 0 mm 5 mps 734 mmHg 66%
    21:00 -5°C° 0 mm 5 mps 734 mmHg 65%
    22:00 -4°C° 0 mm 4 mps 735 mmHg 64%
    23:00 -4°C° 0 mm 4 mps 735 mmHg 65%

    Tomorrow, 19 March, Tuesday

    Time Temperature Precipitation Wind Pressure Humidity
    00:00 -4°C° 0 mm 3 mps 735 mmHg 65%
    01:00 -4°C° 0 mm 3 mps 736 mmHg 66%
    02:00 -2°C° 0 mm 3 mps 736 mmHg 67%
    03:00 -2°C° 0 mm 3 mps 736 mmHg 68%
    04:00 -2°C° 0 mm 4 mps 736 mmHg 69%
    05:00 -2°C° 0 mm 5 mps 736 mmHg 71%
    06:00 -3°C° 0 mm 6 mps 736 mmHg 73%
    07:00 -2°C° 0 mm 8 mps 736 mmHg 75%
    08:00 -3°C° 0.3 mm 9 mps 736 mmHg 78%
    09:00 -3°C° 0.3 mm 10 mps 736 mmHg 81%
    10:00 -3°C° 0.3 mm 11 mps 736 mmHg 84%
    11:00 -2°C° 0.2 mm 11 mps 736 mmHg 83%
    12:00 -2°C° 0.2 mm 11 mps 736 mmHg 82%
    13:00 -2°C° 0.2 mm 11 mps 736 mmHg 82%
    14:00 -2°C° 0 mm 12 mps 735 mmHg 80%
    15:00 -2°C° 0 mm 13 mps 735 mmHg 78%
    16:00 -2°C° 0 mm 13 mps 734 mmHg 77%
    17:00 -2°C° 0 mm 14 mps 733 mmHg 77%
    18:00 -2°C° 0 mm 14 mps 733 mmHg 77%
    19:00 -4°C° 0 mm 15 mps 732 mmHg 77%
    20:00 -4°C° 0.1 mm 14 mps 731 mmHg 72%
    21:00 -4°C° 0.1 mm 14 mps 729 mmHg 68%
    22:00 -4°C° 0.1 mm 14 mps 728 mmHg 63%
    23:00 -4°C° 0.6 mm 14 mps 727 mmHg 66%

    Day after tomorrow, 20 March, Wednesday

    Time Temperature Precipitation Wind Pressure Humidity
    00:00 -4°C° 0.6 mm 15 mps 726 mmHg 69%
    01:00 -4°C° 0.6 mm 15 mps 725 mmHg 72%
    02:00 -4°C° 1.1 mm 14 mps 724 mmHg 77%
    03:00 -2°C° 1.1 mm 12 mps 724 mmHg 83%
    04:00 -2°C° 1.1 mm 11 mps 724 mmHg 88%
    05:00 -2°C° 0.2 mm 10 mps 724 mmHg 86%
    06:00 -1°C° 0.2 mm 9 mps 725 mmHg 83%
    07:00 -1°C° 0.2 mm 8 mps 725 mmHg 81%
    08:00 -1°C° 0.3 mm 8 mps 726 mmHg 81%
    09:00 -1°C° 0.3 mm 8 mps 726 mmHg 80%
    10:00 -1°C° 0.3 mm 9 mps 727 mmHg 80%
    11:00 -1°C° 0 mm 8 mps 728 mmHg 80%
    12:00 -1°C° 0 mm 7 mps 728 mmHg 80%
    13:00 -1°C° 0 mm 7 mps 728 mmHg 80%
    14:00 -1°C° 0.1 mm 7 mps 729 mmHg 81%
    15:00 -1°C° 0.1 mm 7 mps 729 mmHg 81%
    16:00 -1°C° 0.1 mm 7 mps 729 mmHg 82%
    17:00 -1°C° 0.3 mm 8 mps 730 mmHg 81%
    18:00 -1°C° 0.3 mm 9 mps 730 mmHg 80%
    19:00 -2°C° 0.3 mm 10 mps 730 mmHg 79%
    20:00 -2°C° 0.1 mm 11 mps 731 mmHg 77%
    21:00 -2°C° 0.1 mm 11 mps 731 mmHg 75%
    22:00 -2°C° 0.1 mm 11 mps 732 mmHg 72%
    23:00 -3°C° 0.2 mm 11 mps 732 mmHg 70%

    21 March, Thursday

    Time Temperature Precipitation Wind Pressure Humidity
    00:00 -3°C° 0.2 mm 11 mps 732 mmHg 67%
    01:00 -3°C° 0.2 mm 10 mps 733 mmHg 64%
    02:00 -3°C° 0 mm 9 mps 732 mmHg 64%
    03:00 -3°C° 0 mm 7 mps 732 mmHg 65%
    04:00 -2°C° 0 mm 5 mps 732 mmHg 65%
    05:00 -2°C° 0 mm 5 mps 731 mmHg 66%
    06:00 -3°C° 0 mm 6 mps 730 mmHg 66%
    07:00 -3°C° 0 mm 6 mps 729 mmHg 67%
    08:00 -3°C° 0.1 mm 7 mps 728 mmHg 69%
    09:00 -2°C° 0.1 mm 8 mps 726 mmHg 71%
    10:00 -3°C° 0.1 mm 10 mps 725 mmHg 72%
    11:00 -2°C° 0.4 mm 8 mps 725 mmHg 73%
    12:00 -2°C° 0.4 mm 6 mps 725 mmHg 74%
    13:00 -1°C° 0.4 mm 4 mps 725 mmHg 75%
    14:00 -2°C° 0.6 mm 8 mps 727 mmHg 78%
    15:00 -3°C° 0.6 mm 11 mps 728 mmHg 81%
    16:00 -4°C° 0.6 mm 15 mps 730 mmHg 84%
    17:00 -4°C° 0.1 mm 13 mps 731 mmHg 77%
    18:00 -3°C° 0.1 mm 12 mps 732 mmHg 71%
    19:00 -4°C° 0.1 mm 11 mps 734 mmHg 65%
    20:00 -4°C° 0.2 mm 10 mps 734 mmHg 65%
    21:00 -4°C° 0.2 mm 8 mps 735 mmHg 64%
    22:00 -3°C° 0.2 mm 7 mps 735 mmHg 64%
    23:00 -3°C° 0.3 mm 7 mps 735 mmHg 65%

    22 March, Friday

    Time Temperature Precipitation Wind Pressure Humidity
    00:00 -3°C° 0.3 mm 7 mps 735 mmHg 65%
    01:00 -3°C° 0.3 mm 7 mps 734 mmHg 66%
    02:00 -4°C° 0.1 mm 6 mps 734 mmHg 66%
    03:00 -4°C° 0.1 mm 6 mps 734 mmHg 66%
    04:00 -4°C° 0.1 mm 5 mps 734 mmHg 66%
    05:00 -3°C° 0 mm 4 mps 734 mmHg 65%
    06:00 -3°C° 0 mm 4 mps 733 mmHg 64%
    07:00 -2°C° 0 mm 3 mps 733 mmHg 62%
    08:00 -3°C° 0 mm 4 mps 733 mmHg 62%
    09:00 -2°C° 0 mm 5 mps 733 mmHg 63%
    10:00 -3°C° 0 mm 6 mps 733 mmHg 63%
    11:00 -3°C° 0 mm 7 mps 733 mmHg 66%
    12:00 -3°C° 0 mm 7 mps 733 mmHg 69%
    13:00 -4°C° 0 mm 8 mps 733 mmHg 72%
    14:00 -4°C° 0 mm 8 mps 733 mmHg 71%
    15:00 -2°C° 0 mm 8 mps 733 mmHg 70%
    16:00 -2°C° 0 mm 8 mps 733 mmHg 69%
    17:00 -4°C° 0 mm 9 mps 732 mmHg 68%
    18:00 -4°C° 0 mm 10 mps 732 mmHg 68%
    19:00 -4°C° 0 mm 11 mps 732 mmHg 67%
    20:00 -4°C° 0.2 mm 11 mps 731 mmHg 71%
    21:00 -3°C° 0.2 mm 12 mps 731 mmHg 74%
    22:00 -3°C° 0.2 mm 12 mps 730 mmHg 78%
    23:00 -3°C° 0.8 mm 12 mps 730 mmHg 80%

    23 March, Saturday

    Time Temperature Precipitation Wind Pressure Humidity
    00:00 -3°C° 0.8 mm 12 mps 729 mmHg 82%
    01:00 -2°C° 0.8 mm 12 mps 729 mmHg 84%
    02:00 -4°C° 0.3 mm 13 mps 729 mmHg 80%
    03:00 -4°C° 0.3 mm 13 mps 729 mmHg 76%
    04:00 -4°C° 0.3 mm 13 mps 729 mmHg 73%
    05:00 -3°C° 0.1 mm 12 mps 729 mmHg 68%
    06:00 -4°C° 0.1 mm 11 mps 729 mmHg 64%
    07:00 -4°C° 0.1 mm 10 mps 729 mmHg 59%
    08:00 -4°C° 0.1 mm 11 mps 729 mmHg 61%
    09:00 -3°C° 0.1 mm 12 mps 728 mmHg 63%
    10:00 -4°C° 0.1 mm 13 mps 728 mmHg 65%
    11:00 -4°C° 0.4 mm 13 mps 727 mmHg 66%
    12:00 -4°C° 0.4 mm 14 mps 727 mmHg 66%
    13:00 -4°C° 0.4 mm 15 mps 726 mmHg 66%
    14:00 -4°C° 0 mm 14 mps 726 mmHg 66%
    15:00 -2°C° 0 mm 14 mps 725 mmHg 65%
    16:00 -2°C° 0 mm 14 mps 724 mmHg 65%
    17:00 -2°C° 1.1 mm 14 mps 724 mmHg 71%
    18:00 -4°C° 1.1 mm 14 mps 723 mmHg 76%
    19:00 -4°C° 1.1 mm 15 mps 723 mmHg 82%
    20:00 -4°C° 1.2 mm 14 mps 722 mmHg 77%
    21:00 -5°C° 1.2 mm 13 mps 721 mmHg 71%
    22:00 -5°C° 1.2 mm 13 mps 721 mmHg 66%
    23:00 -5°C° 0.2 mm 14 mps 720 mmHg 65%
    Show more